Regional Weather Roundup
Issued by NWS Sterling, VA

Home | Current Version | Previous Version | Graphics & Text | Print | Product List | Glossary On
Versions: 1 2 3 4 5 6 7 8 9 10 11 12 13 14 15 16 17 18 19 20 21 22 23 24 25 26 27 28 29 30 31 32 33 34 35 36 37 38 39 40 41 42 43 44 45 46 47 48 49 50
000
ASUS41 KLWX 310510
RWRLWX

REGIONAL WEATHER ROUNDUP
NATIONAL WEATHER SERVICE BALTIMORE MD/WASHINGTON DC
100 AM EDT WED AUG 31 2016

Note: "FAIR" indicates few or no clouds below 12,000 feet
with no significant weather and/or obstructions to visibility.
 TC=TEMPERATURE CELSIUS

 * =Non NWS site. Station does not report precipitation (e.g. rain,
    snow, etc.), thunder, or fog.

DCZ001-MDZ009-015-VAZ040>042-051-053>054-310600-
WASHINGTON METRO

CITY           SKY/WX    TMP DP  RH WIND       PRES   REMARKS
WASHINGTON NAT PTCLDY    78  65  63 CALM      30.05S
DULLES         CLEAR     69  62  78 CALM      30.06R
ANDREWS AFB    CLEAR     68  64  88 CALM      30.05R
FT BELVOIR     CLEAR     67  65  91 CALM      30.05R
COLLEGE PARK*  CLEAR     66  64  94 CALM      30.05R
LEESBURG*      PTCLDY    70  68  94 CALM      30.07S
MANASSAS*      CLEAR     70  70 100 CALM      30.06S
GAITHERSBURG*  CLEAR     66  61  82 CALM      30.10S

$$

MDZ006>007-011-014-310600-
BALTIMORE METRO

CITY           SKY/WX    TMP DP  RH WIND       PRES   REMARKS
BWI AIRPORT    PTCLDY    68  64  87 CALM      30.05R
MD SCIENCE CTR   N/A     78  64  61 MISG      30.05R
MARTIN STATE   PTCLDY    70  70 100 CALM      30.06S
ANNAPOLIS      PTCLDY    75  71  87 CALM      30.04S
FORT MEADE*    CLEAR     63  63 100 CALM      30.08R

$$

MDZ012-015-019>023-310600-
MARYLAND EASTERN SHORE

CITY           SKY/WX    TMP DP  RH WIND       PRES   REMARKS
OCEAN CITY     CLEAR     78  73  84 S3        30.04S
SALISBURY      CLEAR     71  70  96 CALM      30.04F
BAY BRIDGE AP* PTCLDY    75  72  88 MISG      30.04S
CAMBRIDGE*     CLEAR     70  68  94 CALM      30.04S
EASTON*        CLEAR     71  71 100 CALM      30.08S

$$

MDZ017>025-310600-
SOUTHERN MARYLAND

CITY           SKY/WX    TMP DP  RH WIND       PRES   REMARKS
PATUXENT RIVER CLEAR     78  73  84 S5        30.03F
ST INIGOES     CLEAR     73  70  90 CALM      30.03F
LEONARDTOWN*   CLEAR     72  68  88 CALM      30.06S

$$

MDZ003>005-310600-
NORTH CENTRAL MARYLAND

CITY           SKY/WX    TMP DP  RH WIND       PRES   REMARKS
FREDERICK*     CLEAR     64  64 100 CALM      30.09S
HAGERSTOWN APT CLEAR     68  60  75 CALM      30.07R

$$

MDZ501>502-310600-
WESTERN MARYLAND

CITY           SKY/WX    TMP DP  RH WIND       PRES   REMARKS
OAKLAND*       CLEAR     64  52  63 E3        30.17S
CUMBERLAND*    CLEAR     70  59  68 N5        30.11S

$$

VAZ025>031-310600-
SHENANDOAH VALLEY

CITY           SKY/WX    TMP DP  RH WIND       PRES   REMARKS
WINCHESTER*    CLEAR     68  63  83 CALM      30.07R
FRONT ROYAL*   FAIR      68  68 100 CALM      30.06S
LURAY*         MOCLDY    72  72 100 SW5       30.07F
NEW MARKET*    FAIR     N/A N/A N/A CALM      30.07F
STAUNTON*      CLOUDY    71  69  95 CALM      30.12S
WAYNESBORO*    CLOUDY    70  69  96 SW3       30.12S

$$

WVZ021-048>050-054>055-310600-
EASTERN WEST VIRGINIA PANHANDLE

CITY           SKY/WX    TMP DP  RH WIND       PRES   REMARKS
MARTINSBURG    CLEAR     66  63  90 CALM      30.06R
PETERSBURG*    CLEAR     67  64  89 CALM      30.08S

$$

VAZ036>039-050-310600-
CENTRAL FOOTHILLS

CITY           SKY/WX    TMP DP  RH WIND       PRES   REMARKS
CHARLOTTESVILL CLOUDY    75  71  87 CALM      30.07S
CULPEPER*      PTCLDY    70  69  99 CALM      30.07R
ORANGE*          N/A     73  73 100 CALM      30.08S
GORDONSVILLE*  CLOUDY    73  72  94 CALM      30.06S
WARRENTON*     FAIR      66  61  84 CALM      30.05S HAZE

$$

VAZ055>057-310600-
NORTH AND CENTRAL PIEDMONT

CITY           SKY/WX    TMP DP  RH WIND       PRES   REMARKS
FREDERICKSBRG* CLEAR     71  71 100 CALM      30.04S
STAFFORD*      CLEAR     66  66  99 CALM      30.09S

$$

NCZ024-NYZ072-PAZ021-071-VAZ022-071-310600-
OTHER REGIONAL OBSERVATIONS

CITY           SKY/WX    TMP DP  RH WIND       PRES   REMARKS
NEW YORK CITY  PTCLDY    75  68  78 VRB5      30.07F
PHILADELPHIA   MOCLDY    74  71  91 E6        30.05F
PITTSBURGH     PTCLDY    67  57  70 CALM      30.06F
ROANOKE        MOCLDY    74  70  87 CALM      30.11R
RICHMOND       CLEAR     73  69  87 CALM      30.04S
RALEIGH        MOCLDY    78  69  73 SE6       30.04S

$$

ANZ530>537-310600-
MARINE OBSERVATIONS

STATION/POSITION TIME  TEMP    WIND        PRES
                       AIR SEA DIR/SP/G
                 (UTC) (F)     (DEG/KT/KT) (MB)
THOMAS PT LIGHT  0500   79 83  160/  9/ 10 1018.6F
BALT KEY BRIDGE  0448   78     190/  4/  4 1017.4R
COVE POINT       0442   80     180/ 11/ 12 1017.7F
LEWISETTA        0442   78 85  170/  2/  3 1016.7F
SOLOMONS ISLAND  0442   80 85  150/  8/  9   N/A
PINEY POINT      0448          190/  6/  6   N/A

$$




USA.gov is the U.S. government's official web portal to all federal, state and local government web resources and services.